Home   Weather   Granby   Past weeks

Flag for Canada Past Weather in Granby, Quebec, Canada — Yesterday and Last 2 Weeks

Now
36 °F

Chilly.


Feels Like: 33 °F
Forecast: 34 / 60 °F
Wind: 3 mph from Southeast

Location: Frelighsburg

Current Time: Apr 23, 2017 at 8:09:45 am

Latest Report: Apr 23, 2017 at 7:00 am


Visibility: N/A

Pressure: 30.06 "Hg

Humidity: 95%

Dew Point: 35 °F

Location of GranbyLocation

Past Weather in Granby — Graph

°F

Granby Temperature Yesterday

Maximum temperature yesterday: 46 °F (at 9:00 am)
Minimum temperature yesterday: 40 °F (at 11:00 pm)
Average temperature yesterday: 43 °F

High & Low Weather Summary for the Past Weeks

 TemperatureHumidityPressure
High78 °F (Apr 10, 2:00 pm)100% (Apr 11, 8:00 pm)30.47 "Hg (Apr 11, 8:00 pm)
Low29 °F (Apr 9, 3:00 am)17% (Apr 10, 2:00 pm)29.57 "Hg (Apr 16, 4:00 pm)
Average47 °F72%30.06 "Hg
* Reported Apr 8 7:00 am — Apr 23 7:00 am, Granby, Weather by CustomWeather, © 2017

Note: Actual official high and low records may vary slightly from our data, if they occured in-between our weather recording intervals... More about our weather records

Advertising

Granby Weather History for the Previous 24 Hours

Scroll right to see more
 ConditionsComfort  
Time TempWeatherWind HumidityBarometerVisibility
7:00 am
Sun, Apr 23
36 °FChilly.3 mph95%30.06 "HgN/A
6:00 am36 °FChilly.1 mph94%30.04 "HgN/A
5:00 am35 °FChilly.1 mph95%30.03 "HgN/A
4:00 am37 °FChilly.3 mph90%30.03 "HgN/A
3:00 am38 °FChilly.5 mph89%30.03 "HgN/A
2:00 am39 °FChilly.5 mph88%30.03 "HgN/A
1:00 am41 °FQuite cool.5 mph87%30.03 "HgN/A
12:00 am42 °FQuite cool.2 mph87%30.02 "HgN/A
11:00 pm
Sat, Apr 22
40 °FQuite cool.3 mph93%30.02 "HgN/A
10:00 pm42 °FQuite cool.2 mph86%30.01 "HgN/A
9:00 pm42 °FQuite cool.2 mph86%29.99 "HgN/A
8:00 pm42 °FQuite cool.3 mph86%29.99 "HgN/A
7:00 pm43 °FQuite cool.3 mph83%29.97 "HgN/A
6:00 pm42 °FQuite cool.3 mph91%29.96 "HgN/A
5:00 pm42 °FQuite cool.5 mph92%29.95 "HgN/A
4:00 pm44 °FQuite cool.5 mph92%29.94 "HgN/A
3:00 pm44 °FQuite cool.5 mph96%29.93 "HgN/A
2:00 pm45 °FQuite cool.5 mph88%29.93 "HgN/A
1:00 pm44 °FQuite cool.3 mph93%29.94 "HgN/A
12:00 pm44 °FQuite cool.5 mph91%29.93 "HgN/A
11:00 am44 °FQuite cool.5 mph93%29.92 "HgN/A
10:00 am44 °FQuite cool.3 mph93%29.91 "HgN/A
9:00 am46 °FCool.2 mph92%29.90 "HgN/A
8:00 am45 °FCool.2 mph89%29.90 "HgN/A
Weather by CustomWeather, © 2017

See weather overviewHow to use our weather pages